�������l�o���
Date,Time,MP-1(��Sv/h),MP-2(��Sv/h),MP-3(��Sv/h),MP-4(��Sv/h),MP-5(��Sv/h),MP-6(��Sv/h),MP-7(��Sv/h),����,����(m/s),���J
2018/09/07,00:00,0.309,0.192,0.311,0.300,0.286,0.156,0.095,�쐼,3.0,��
2018/09/07,00:10,0.312,0.191,0.312,0.298,0.286,0.153,0.096,��쐼,2.7,��
2018/09/07,00:20,0.308,0.191,0.308,0.302,0.282,0.155,0.094,��,2.4,��
2018/09/07,00:30,0.307,0.193,0.311,0.300,0.284,0.154,0.095,��,2.8,��
2018/09/07,00:40,0.312,0.191,0.312,0.298,0.286,0.154,0.096,��쐼,3.2,��
2018/09/07,00:50,0.310,0.192,0.309,0.302,0.282,0.155,0.095,��쐼,4.2,��
2018/09/07,01:00,0.309,0.193,0.312,0.301,0.285,0.155,0.095,��쐼,1.0,��
2018/09/07,01:10,0.310,0.190,0.312,0.297,0.287,0.154,0.096,�k,0.9,�L
2018/09/07,01:20,0.310,0.193,0.309,0.302,0.284,0.154,0.095,���k��,2.3,��
2018/09/07,01:30,0.307,0.192,0.312,0.301,0.284,0.156,0.096,�k,1.3,��
2018/09/07,01:40,0.311,0.191,0.313,0.299,0.288,0.155,0.097,��쐼,1.9,�L
2018/09/07,01:50,0.310,0.192,0.308,0.302,0.283,0.156,0.095,��,2.4,�L
2018/09/07,02:00,0.308,0.193,0.313,0.301,0.283,0.156,0.095,��쓌,2.4,�L
2018/09/07,02:10,0.313,0.192,0.314,0.300,0.288,0.155,0.097,�쓌,1.8,�L
2018/09/07,02:20,0.311,0.193,0.310,0.303,0.285,0.156,0.096,�k,1.3,��
2018/09/07,02:30,0.308,0.193,0.314,0.300,0.284,0.156,0.097,�k��,0.8,��
2018/09/07,02:40,0.312,0.192,0.311,0.298,0.287,0.155,0.097,��,0.8,��
2018/09/07,02:50,0.310,0.193,0.309,0.303,0.285,0.156,0.096,-,CALM,��
2018/09/07,03:00,0.309,0.191,0.313,0.300,0.284,0.156,0.096,-,CALM,��
2018/09/07,03:10,0.311,0.192,0.311,0.298,0.287,0.155,0.097,�k,0.8,��
2018/09/07,03:20,0.309,0.192,0.309,0.303,0.283,0.156,0.095,�k,1.7,��
2018/09/07,03:30,0.308,0.191,0.313,0.299,0.283,0.155,0.096,�k,1.9,��
2018/09/07,03:40,0.311,0.193,0.309,0.298,0.285,0.153,0.097,�k,2.2,��
2018/09/07,03:50,0.309,0.192,0.309,0.302,0.284,0.155,0.095,�k,1.8,��
2018/09/07,04:00,0.308,0.191,0.312,0.300,0.283,0.155,0.096,�k�k��,2.2,��
2018/09/07,04:10,0.312,0.192,0.310,0.298,0.286,0.154,0.096,�k�k��,2.6,��
2018/09/07,04:20,0.309,0.192,0.312,0.304,0.285,0.156,0.095,�k�k��,3.4,��
2018/09/07,04:30,0.307,0.192,0.312,0.300,0.285,0.157,0.097,�k,3.7,��
2018/09/07,04:40,0.312,0.193,0.311,0.301,0.288,0.155,0.097,�k,4.2,�L
2018/09/07,04:50,0.309,0.192,0.313,0.302,0.285,0.156,0.097,�k,3.3,��
2018/09/07,05:00,0.309,0.192,0.312,0.300,0.283,0.157,0.097,�k,3.3,��
2018/09/07,05:10,0.312,0.193,0.309,0.300,0.287,0.156,0.097,�k,3.2,��
2018/09/07,05:20,0.308,0.192,0.313,0.303,0.284,0.155,0.096,�k,3.6,��
2018/09/07,05:30,0.308,0.191,0.311,0.300,0.284,0.156,0.096,�k�k��,3.2,��
2018/09/07,05:40,0.311,0.192,0.309,0.299,0.287,0.155,0.096,�k,2.9,��
2018/09/07,05:50,0.309,0.192,0.313,0.302,0.284,0.156,0.096,�k,3.8,��
2018/09/07,06:00,0.309,0.192,0.310,0.299,0.284,0.155,0.096,�k,3.9,��
2018/09/07,06:10,0.312,0.191,0.309,0.302,0.287,0.155,0.097,�k,3.9,��
2018/09/07,06:20,0.308,0.191,0.312,0.302,0.283,0.155,0.095,�k�k��,2.3,��
2018/09/07,06:30,0.308,0.193,0.310,0.298,0.283,0.155,0.096,�k��,0.7,��
2018/09/07,06:40,0.311,0.191,0.309,0.301,0.286,0.155,0.096,�k��,0.6,�L
2018/09/07,06:50,0.309,0.192,0.313,0.302,0.285,0.154,0.095,�k�k��,1.5,�L
2018/09/07,07:00,0.308,0.193,0.311,0.299,0.282,0.156,0.097,�k,1.2,�L
2018/09/07,07:10,0.312,0.192,0.310,0.301,0.285,0.156,0.097,-,CALM,��
2018/09/07,07:20,0.310,0.191,0.311,0.302,0.287,0.155,0.095,-,CALM,��
2018/09/07,07:30,0.307,0.193,0.310,0.299,0.283,0.156,0.096,-,CALM,�L
2018/09/07,07:40,0.311,0.192,0.309,0.299,0.282,0.156,0.097,-,CALM,�L
2018/09/07,07:50,0.311,0.191,0.313,0.302,0.288,0.155,0.097,��,0.7,�L
2018/09/07,08:00,0.309,0.193,0.310,0.301,0.287,0.157,0.097,��쐼,0.6,�L
2018/09/07,08:10,0.309,0.194,0.310,0.298,0.283,0.157,0.097,-,CALM,�L
2018/09/07,08:20,0.313,0.193,0.314,0.302,0.283,0.157,0.097,-,CALM,��
2018/09/07,08:30,0.311,0.191,0.313,0.303,0.287,0.155,0.096,-,CALM,�L
2018/09/07,08:40,0.307,0.193,0.312,0.301,0.287,0.156,0.097,��,0.7,�L
2018/09/07,08:50,0.308,0.194,0.310,0.300,0.285,0.157,0.098,�쓌,0.8,��
2018/09/07,09:00,0.312,0.193,0.313,0.301,0.282,0.156,0.097,���쓌,1.2,�L
2018/09/07,09:10,0.314,0.194,0.315,0.305,0.282,0.157,0.097,��쓌,1.3,�L
2018/09/07,09:20,0.311,0.194,0.311,0.302,0.289,0.159,0.099,��,1.3,�L
2018/09/07,09:30,0.310,0.194,0.310,0.302,0.288,0.159,0.099,��쓌,1.8,��
2018/09/07,09:40,0.313,0.194,0.313,0.300,0.286,0.158,0.099,��,2.6,��
2018/09/07,09:50,0.313,0.193,0.313,0.305,0.284,0.157,0.098,��,1.6,��
2018/09/07,10:00,0.310,0.193,0.310,0.303,0.284,0.155,0.096,��쐼,0.9,��
2018/09/07,10:10,0.309,0.191,0.307,0.300,0.283,0.156,0.096,��,1.2,��
2018/09/07,10:20,0.307,0.191,0.311,0.298,0.282,0.155,0.096,�쓌,1.4,��
2018/09/07,10:30,0.308,0.191,0.314,0.297,0.282,0.156,0.096,��쓌,1.9,��
2018/09/07,10:40,0.307,0.191,0.311,0.299,0.283,0.156,0.095,��쓌,1.5,��
2018/09/07,10:50,0.308,0.191,0.307,0.297,0.283,0.156,0.097,��쓌,1.7,��
2018/09/07,11:00,0.308,0.190,0.309,0.297,0.285,0.155,0.096,��쓌,2.6,��
2018/09/07,11:10,0.307,0.192,0.309,0.298,0.284,0.155,0.096,��,4.4,��
2018/09/07,11:20,0.312,0.191,0.311,0.304,0.283,0.156,0.096,��,4.0,��
2018/09/07,11:30,0.314,0.190,0.314,0.304,0.282,0.155,0.096,��,5.3,��
2018/09/07,11:40,0.312,0.192,0.310,0.301,0.283,0.156,0.095,��,5.8,��
2018/09/07,11:50,0.310,0.189,0.310,0.299,0.284,0.155,0.094,��,5.9,��
2018/09/07,12:00,0.308,0.191,0.311,0.299,0.285,0.155,0.094,��,7.2,��
2018/09/07,12:10,0.307,0.191,0.310,0.298,0.284,0.155,0.094,��,8.1,��
2018/09/07,12:20,0.308,0.190,0.310,0.299,0.284,0.155,0.096,��,7.7,��
2018/09/07,12:30,0.309,0.191,0.310,0.300,0.285,0.155,0.095,��,8.7,��
2018/09/07,12:40,0.310,0.190,0.310,0.298,0.284,0.155,0.094,��,8.7,��
2018/09/07,12:50,0.309,0.191,0.308,0.299,0.284,0.155,0.093,��,9.2,��
2018/09/07,13:00,0.309,0.190,0.309,0.298,0.282,0.155,0.093,��,10.0,��
2018/09/07,13:10,0.307,0.190,0.309,0.297,0.283,0.154,0.094,��,10.2,��
2018/09/07,13:20,0.306,0.191,0.308,0.299,0.282,0.154,0.094,��,9.2,��
2018/09/07,13:30,0.306,0.189,0.307,0.297,0.282,0.154,0.093,��,10.1,��
2018/09/07,13:40,0.306,0.189,0.307,0.296,0.280,0.155,0.093,��,10.4,��
2018/09/07,13:50,0.309,0.188,0.309,0.300,0.282,0.155,0.095,��,8.6,��
2018/09/07,14:00,0.312,0.188,0.313,0.301,0.283,0.154,0.095,��,9.7,��
2018/09/07,14:10,0.311,0.188,0.312,0.301,0.282,0.154,0.095,��,8.8,��
2018/09/07,14:20,0.309,0.189,0.310,0.300,0.281,0.153,0.094,��,8.5,��
2018/09/07,14:30,0.308,0.189,0.310,0.298,0.282,0.154,0.094,��,7.7,��
2018/09/07,14:40,0.308,0.188,0.308,0.298,0.281,0.154,0.094,��,5.8,��
2018/09/07,14:50,0.307,0.188,0.307,0.297,0.281,0.154,0.094,��,6.5,��
2018/09/07,15:00,0.305,0.189,0.307,0.296,0.282,0.154,0.093,��,7.5,��
2018/09/07,15:10,0.305,0.189,0.306,0.298,0.282,0.153,0.094,��,8.2,��
2018/09/07,15:20,0.306,0.190,0.307,0.298,0.281,0.154,0.094,��,8.1,��
2018/09/07,15:30,0.312,0.192,0.311,0.302,0.281,0.154,0.094,��,6.3,��
2018/09/07,15:40,0.310,0.191,0.313,0.301,0.285,0.154,0.093,��,6.8,��
2018/09/07,15:50,0.308,0.190,0.309,0.300,0.285,0.153,0.093,��,6.5,�L
2018/09/07,16:00,0.306,0.189,0.307,0.297,0.286,0.154,0.094,��,9.0,��
2018/09/07,16:10,0.305,0.189,0.306,0.297,0.282,0.153,0.094,��,8.2,��
2018/09/07,16:20,0.307,0.190,0.308,0.297,0.282,0.154,0.095,��쐼,4.0,��
2018/09/07,16:30,0.312,0.190,0.312,0.302,0.279,0.153,0.093,��쐼,1.2,��
2018/09/07,16:40,0.310,0.190,0.310,0.301,0.281,0.155,0.093,-,CALM,��
2018/09/07,16:50,0.308,0.189,0.310,0.300,0.281,0.153,0.093,���k��,1.1,��
2018/09/07,17:00,0.307,0.188,0.308,0.298,0.284,0.153,0.093,���쓌,1.7,��
2018/09/07,17:10,0.307,0.191,0.308,0.297,0.284,0.154,0.093,��쓌,0.7,��
2018/09/07,17:20,0.312,0.192,0.311,0.301,0.282,0.154,0.093,�쐼,0.6,��
2018/09/07,17:30,0.309,0.191,0.310,0.300,0.281,0.154,0.093,��쐼,1.2,��
2018/09/07,17:40,0.308,0.189,0.308,0.299,0.281,0.154,0.093,��쓌,1.7,��
2018/09/07,17:50,0.306,0.190,0.308,0.297,0.285,0.154,0.094,�쓌,1.2,��
2018/09/07,18:00,0.312,0.191,0.312,0.299,0.283,0.154,0.093,��쓌,1.3,��
2018/09/07,18:10,0.311,0.190,0.311,0.302,0.282,0.154,0.093,��,2.3,��
2018/09/07,18:20,0.307,0.190,0.307,0.300,0.282,0.153,0.094,��쐼,3.0,��
2018/09/07,18:30,0.305,0.190,0.308,0.297,0.286,0.154,0.094,��,3.2,��
2018/09/07,18:40,0.311,0.191,0.312,0.301,0.284,0.154,0.094,�k��,0.7,��
2018/09/07,18:50,0.310,0.190,0.311,0.303,0.282,0.154,0.093,�k�k��,2.6,��
2018/09/07,19:00,0.308,0.190,0.309,0.300,0.280,0.154,0.094,�k�k��,3.4,��
2018/09/07,19:10,0.308,0.192,0.309,0.297,0.285,0.155,0.095,�k,2.9,��
2018/09/07,19:20,0.312,0.192,0.313,0.298,0.286,0.155,0.095,�k�k��,3.1,��
2018/09/07,19:30,0.309,0.190,0.312,0.302,0.282,0.156,0.093,�k�k��,3.5,��
2018/09/07,19:40,0.307,0.192,0.309,0.301,0.281,0.153,0.095,�k�k��,3.7,��
2018/09/07,19:50,0.309,0.193,0.309,0.298,0.287,0.154,0.095,�k�k��,4.4,��
2018/09/07,20:00,0.311,0.191,0.314,0.302,0.285,0.156,0.094,�k,3.4,��
2018/09/07,20:10,0.309,0.190,0.312,0.301,0.283,0.155,0.094,�k�k��,3.0,��
2018/09/07,20:20,0.307,0.193,0.308,0.299,0.284,0.153,0.095,�k�k��,2.5,��
2018/09/07,20:30,0.311,0.192,0.312,0.299,0.285,0.155,0.095,�k,2.8,��
2018/09/07,20:40,0.312,0.191,0.311,0.302,0.284,0.154,0.094,�k,2.4,��
2018/09/07,20:50,0.309,0.193,0.309,0.301,0.283,0.154,0.095,�k�k��,2.5,��
2018/09/07,21:00,0.309,0.190,0.312,0.298,0.287,0.155,0.095,�k,2.1,��
2018/09/07,21:10,0.312,0.191,0.311,0.301,0.285,0.155,0.095,�k�k��,2.3,��
2018/09/07,21:20,0.308,0.191,0.309,0.301,0.281,0.154,0.095,�k��,1.3,��
2018/09/07,21:30,0.309,0.191,0.310,0.298,0.286,0.155,0.095,�k�k��,2.0,��
2018/09/07,21:40,0.312,0.191,0.313,0.301,0.285,0.155,0.094,�k�k��,1.6,��
2018/09/07,21:50,0.310,0.193,0.311,0.302,0.282,0.154,0.096,�k��,1.7,��
2018/09/07,22:00,0.310,0.191,0.312,0.298,0.286,0.157,0.095,��,1.0,��
2018/09/07,22:10,0.312,0.191,0.314,0.302,0.285,0.154,0.095,���쓌,0.8,��
2018/09/07,22:20,0.309,0.191,0.309,0.302,0.282,0.154,0.095,���쓌,1.0,��
2018/09/07,22:30,0.309,0.191,0.310,0.299,0.286,0.155,0.095,�쓌,0.8,��
2018/09/07,22:40,0.313,0.191,0.312,0.300,0.286,0.154,0.095,��쓌,1.6,��
2018/09/07,22:50,0.308,0.191,0.309,0.302,0.282,0.155,0.095,��,2.0,��
2018/09/07,23:00,0.309,0.190,0.311,0.299,0.284,0.155,0.095,��,3.3,��
2018/09/07,23:10,0.311,0.192,0.313,0.299,0.285,0.154,0.094,��쓌,2.8,��
2018/09/07,23:20,0.309,0.190,0.308,0.302,0.281,0.154,0.095,��,4.0,��
2018/09/07,23:30,0.309,0.191,0.312,0.298,0.282,0.155,0.094,��,6.0,��
2018/09/07,23:40,0.312,0.192,0.312,0.300,0.285,0.155,0.094,��,5.2,��
2018/09/07,23:50,0.307,0.189,0.309,0.302,0.281,0.153,0.095,��,5.8,��
